DateTimeUTC,F1_A11,F1_S11,BsB_S11,BsG_S11,BsR_S11,BbsB_S11,BbsG_S11,BbsR_S11,BaB_A11,BaG_A11,BaR_A11,Tu_S11,T_S11,Uu_S11,U_S11,P_S11,T1_A11
2021-07-23T09:00:00Z,00000200,20000000,,,,,,,-000.41,-000.37,0000.23,17.9,24.9,05.1,03.3,0664.8,31.0
2021-07-23T09:01:00Z,00000200,20000000,,,,,,,0000.52,0000.02,-000.16,17.9,24.9,05.1,03.3,0664.8,31.0
2021-07-23T09:02:00Z,00000200,20000000,,,,,,,-000.00,0000.43,0000.03,17.9,24.9,05.1,03.3,0664.8,31.0
2021-07-23T09:03:00Z,00000200,60000000,,,,,,,-000.02,-000.26,0000.08,17.9,24.9,05.1,03.3,0664.8,31.0
2021-07-23T09:04:00Z,00000200,40000000,0000.27,0000.07,-000.09,-000.15,-000.21,0000.06,-000.13,-000.23,0000.13,18.0,24.7,05.3,03.5,0665.8,31.0
2021-07-23T09:05:00Z,00000200,00000000,0000.15,0000.14,0000.12,-000.25,0000.08,0000.06,-000.03,0000.47,-000.23,18.1,24.7,05.4,03.6,0665.8,31.0
2021-07-23T09:06:00Z,00000200,00000000,-000.11,0000.13,-000.03,-000.21,0000.19,-000.01,0000.38,-000.11,0000.08,18.1,24.7,05.4,03.6,0665.8,31.0
2021-07-23T09:07:00Z,00000200,00000000,0000.60,0000.15,0000.11,-000.41,0000.21,0000.03,-000.48,-000.04,-000.13,18.1,24.7,05.5,03.7,0665.8,31.0
2021-07-23T09:08:00Z,00000200,00000000,0000.05,0000.13,0000.24,0000.33,0000.16,-000.04,0000.37,-000.35,0000.37,18.1,24.7,05.4,03.6,0665.8,31.0
2021-07-23T09:09:00Z,00000200,00000000,0001.00,-000.05,-000.18,-000.42,-000.20,-000.21,-000.16,0000.44,-000.32,18.1,24.6,05.4,03.6,0665.8,31.0
2021-07-23T09:10:00Z,00000200,00000000,0000.08,-000.18,0000.20,-000.26,-000.02,-000.43,-000.18,-000.15,-000.01,18.1,24.6,05.4,03.6,0665.8,31.0
2021-07-23T09:11:00Z,00000200,00000000,0000.42,0000.04,0000.34,-000.07,-000.14,-000.21,-000.11,-000.15,-000.22,18.1,24.6,05.3,03.6,0665.8,31.0
2021-07-23T09:12:00Z,00000200,00000000,0000.30,0000.25,0000.02,0000.16,0000.07,-000.47,0000.29,0000.26,0000.22,18.1,24.6,05.3,03.6,0665.8,31.0
2021-07-23T09:13:00Z,00000200,00000000,0000.45,0000.21,0000.05,-000.43,-000.10,-000.20,-000.00,0000.02,-000.06,18.1,24.6,05.4,03.6,0665.8,31.0
2021-07-23T09:14:00Z,00000200,00000000,-000.46,-000.13,0000.57,-000.68,0000.08,0000.10,-000.01,0000.13,0000.31,18.1,24.6,05.3,03.6,0665.8,31.0
2021-07-23T09:15:00Z,00000200,00000000,-000.28,0000.18,0000.16,0000.58,-000.11,-000.27,0000.39,-000.17,-000.25,18.1,24.6,05.4,03.6,0665.8,31.0
2021-07-23T09:16:00Z,00000200,00000000,0000.17,0000.14,0000.35,-000.14,-000.01,-000.03,-000.06,0000.05,0000.34,18.1,24.6,05.4,03.6,0665.8,31.0
2021-07-23T09:17:00Z,00000200,00000000,-000.01,0000.14,0000.12,0000.56,0000.06,-000.19,-000.18,0000.12,0000.03,18.1,24.6,05.4,03.6,0665.8,31.0
2021-07-23T09:18:00Z,00000200,00000000,0000.67,0000.17,0000.04,0000.47,-000.21,-000.15,0000.23,-000.16,-000.31,18.1,24.6,05.5,03.7,0665.8,31.0
2021-07-23T09:19:00Z,00000200,00000000,-000.05,-000.02,0000.55,-000.42,-000.13,0000.31,-000.08,0000.07,0000.30,18.1,24.6,05.4,03.6,0665.8,31.0
2021-07-23T09:20:00Z,00000200,00000000,0000.31,0000.18,0000.11,-000.41,0000.13,-000.28,-000.11,0000.28,-000.37,18.1,24.6,05.5,03.7,0665.9,31.0
2021-07-23T09:21:00Z,00000200,00000000,0000.27,0000.07,0000.06,-000.39,0000.13,0000.09,0000.69,-000.19,0000.48,18.1,24.6,05.4,03.7,0665.9,31.0
2021-07-23T09:22:00Z,00000200,00000000,0000.63,-000.13,0000.04,0000.13,0000.06,-000.01,-000.35,0000.28,0000.08,18.1,24.6,05.5,03.7,0665.9,31.0
2021-07-23T09:23:00Z,00000200,00000000,0000.22,0000.04,0000.27,0000.05,0000.01,0000.13,0000.01,-000.39,0000.02,18.1,24.6,05.6,03.7,0665.9,31.0
2021-07-23T09:24:00Z,00000200,00000000,0000.89,-000.18,0000.15,-000.23,0000.03,0000.11,-000.15,0000.62,-000.02,18.1,24.6,05.7,03.8,0665.9,31.0
2021-07-23T09:25:00Z,00000200,00000000,0000.56,-000.18,-000.18,-000.21,0000.24,-000.32,0000.35,-000.12,0000.10,18.1,24.6,05.7,03.8,0665.9,31.0
2021-07-23T09:26:00Z,00000200,00000000,0001.37,0000.00,0000.26,-000.12,0000.06,-000.16,0000.39,0000.36,-000.06,18.1,24.6,05.7,03.9,0665.9,31.0
2021-07-23T09:27:00Z,00000200,00000000,0000.20,-000.02,0000.14,-000.04,-000.05,-000.14,-000.29,0000.14,0000.53,18.2,24.6,05.8,03.9,0665.9,31.0
2021-07-23T09:28:00Z,00000200,00000000,0000.19,0000.15,0000.17,-000.52,0000.06,-000.18,0000.10,-000.10,-000.45,18.2,24.6,05.8,03.9,0665.9,31.0
2021-07-23T09:29:00Z,00000200,00000000,0000.26,0000.36,0000.07,-000.04,0000.12,0000.14,0000.09,0000.18,0000.33,18.1,24.6,06.0,04.0,0665.9,31.0
2021-07-23T09:30:00Z,00000200,00000000,0000.77,0000.26,0000.09,-000.45,0000.05,-000.30,0000.30,0000.03,-000.20,18.1,24.6,06.0,04.1,0665.9,31.0
2021-07-23T09:31:00Z,00000200,00000000,-000.15,0000.50,0000.04,0000.03,0000.22,-000.15,0000.31,0000.22,0000.29,18.1,24.6,06.1,04.1,0665.9,31.0
2021-07-23T09:32:00Z,00000200,00000000,0000.09,-000.12,0000.15,0000.20,0000.15,-000.10,-000.25,-000.22,0000.23,18.2,24.6,06.1,04.1,0665.9,31.0
2021-07-23T09:33:00Z,00000200,00000000,-000.20,-000.20,0000.15,0000.22,0000.05,-000.08,0000.36,0000.20,0000.29,18.2,24.6,06.2,04.2,0665.9,31.0
2021-07-23T09:34:00Z,00000200,00000000,-000.20,-000.04,-000.08,0000.30,-000.03,-000.29,0000.01,0000.26,-000.01,18.2,24.6,06.2,04.2,0665.9,31.0
2021-07-23T09:35:00Z,00000200,00000000,0000.47,0000.09,0000.05,-000.03,-000.23,0000.02,0000.05,-000.35,-000.24,18.2,24.6,06.3,04.3,0665.9,31.0
2021-07-23T09:36:00Z,00000200,00000000,0000.30,-000.04,0000.19,-000.15,0000.07,0000.05,0000.42,0000.72,0000.48,18.2,24.6,06.4,04.3,0665.9,31.0
2021-07-23T09:37:00Z,00000200,00000000,0000.27,0000.43,0000.19,0000.33,0000.12,-000.03,-000.19,0000.16,-000.05,18.2,24.6,06.3,04.2,0665.9,31.0
2021-07-23T09:38:00Z,00000200,00000000,0000.31,0000.24,-000.16,-000.00,0000.07,-000.28,0000.08,-000.28,0000.03,18.2,24.6,06.4,04.3,0665.9,31.0
2021-07-23T09:39:00Z,00000200,00000000,0000.21,-000.20,0000.21,-000.08,0000.06,-000.33,0000.15,0000.05,0000.04,18.2,24.6,06.4,04.3,0665.9,31.0
2021-07-23T09:40:00Z,00000200,00000000,-000.29,-000.01,-000.22,0000.29,-000.07,-000.38,-000.00,0000.14,0000.04,18.2,24.6,06.5,04.4,0665.9,31.0
2021-07-23T09:41:00Z,00000200,00000000,0000.93,-000.02,0000.34,-000.28,0000.06,-000.23,0000.12,0000.17,0000.03,18.2,24.6,06.5,04.4,0666.0,31.0
2021-07-23T09:42:00Z,00000200,00000000,0001.09,0000.02,0000.34,-000.06,0000.09,0000.02,0000.04,-000.06,0000.11,18.2,24.6,06.5,04.4,0666.0,31.0
2021-07-23T09:43:00Z,00000200,00000000,0000.54,0000.11,-000.05,-000.32,-000.11,-000.09,0000.13,-000.04,0000.48,18.2,24.6,06.5,04.4,0666.0,31.0
2021-07-23T09:44:00Z,00000200,00000000,0000.65,-000.15,0000.00,0000.54,0000.14,-000.03,0000.26,0000.58,-000.19,18.2,24.6,06.6,04.4,0666.0,31.0
2021-07-23T09:45:00Z,00000200,00000000,0001.02,0000.33,0000.30,-000.12,0000.20,0000.23,0000.12,-000.16,0000.14,18.3,24.6,06.5,04.4,0666.0,31.1
2021-07-23T09:46:00Z,00000200,00000000,0000.64,-000.14,0000.12,0000.13,0000.22,-000.18,-000.02,-000.08,0000.03,18.4,24.7,06.7,04.5,0666.0,31.1
2021-07-23T09:47:00Z,00000200,00000000,0000.50,0000.04,0000.41,0000.05,0000.21,0000.30,0000.05,0000.34,-000.02,18.4,24.7,06.5,04.4,0666.0,31.1
2021-07-23T09:48:00Z,00000200,00000000,0000.36,0000.40,0000.26,-000.28,-000.08,0000.09,0000.12,0000.41,0000.52,18.4,24.7,06.6,04.5,0666.0,31.1
2021-07-23T09:49:00Z,00000200,00000000,0000.50,0000.07,0000.46,-000.06,0000.05,-000.09,0000.19,-000.01,-000.05,18.4,24.7,06.7,04.6,0666.0,31.1
2021-07-23T09:50:00Z,00000200,00000000,0000.75,0000.07,0000.39,-000.42,-000.26,0000.05,-000.09,-000.10,-000.27,18.4,24.7,06.6,04.5,0665.9,31.1
2021-07-23T09:51:00Z,00000200,00000000,0000.89,0000.16,0000.05,-000.06,-000.14,-000.34,0000.04,-000.21,0000.27,18.4,24.7,06.7,04.6,0665.9,31.1
2021-07-23T09:52:00Z,00000200,00000000,0000.08,0000.19,0000.22,0000.27,-000.01,-000.09,0000.03,0000.51,-000.12,18.4,24.7,06.8,04.6,0665.9,31.0
2021-07-23T09:53:00Z,00000200,00000000,0000.57,0000.34,0000.11,-000.35,0000.12,-000.48,0000.53,-000.14,0000.25,18.4,24.7,06.8,04.6,0665.9,31.0
2021-07-23T09:54:00Z,00000200,00000000,0000.55,0000.54,0000.48,0000.30,0000.11,-000.06,0000.26,0000.54,0000.35,18.4,24.7,06.8,04.6,0665.9,31.1
2021-07-23T09:55:00Z,00000200,00000000,0000.89,0000.49,0000.40,0000.00,0000.17,0000.18,0000.21,-000.12,-000.03,18.4,24.7,06.9,04.7,0665.9,31.0
2021-07-23T09:56:00Z,00000200,00000000,0000.77,0000.26,0000.30,-000.37,-000.24,-000.09,0000.13,0000.33,-000.01,18.4,24.7,07.0,04.8,0665.9,31.1
2021-07-23T09:57:00Z,00000200,40000000,,,,,,,-000.59,-000.53,-000.14,18.4,24.8,07.7,05.2,0665.9,31.1
2021-07-23T09:58:00Z,00000200,60000000,,,,,,,0000.50,0000.65,0000.19,18.3,24.9,06.7,04.5,0664.9,31.1
2021-07-23T09:59:00Z,00000200,20000000,,,,,,,0000.24,0000.29,0000.26,18.2,25.0,06.9,04.6,0664.9,31.1
